CW5277 Weather Reports


time (UTC)temp
C
wind
direction
speed
KPH
gust
KPH
rain 1hr
cm
rain 24hr
cm
rain mn
cm
humidity
%
barometer
mb
20260503034550 22 256 0.0 8.0 0.08 0.79 0.79 91 1015.5
20260503034043 22 252 1.6 9.7 0.05 0.76 0.76 91 1015.5
20260503033542 22 190 3.2 9.7 0.08 0.76 0.76 91 1015.2
20260503033109 22 192 1.6 6.4 0.08 0.76 0.76 91 1015.3
20260503032546 22 186 0.0 6.4 0.10 0.76 0.76 91 1015.2
20260503032042 22 215 1.6 6.4 0.08 0.74 0.74 91 1014.6
20260503031549 22 0 1.6 9.7 0.18 0.74 0.74 91 1014.4
20260503031042 22 171 3.2 9.7 0.46 0.74 0.74 91 1013.9
20260503030541 22 159 3.2 9.7 0.51 0.74 0.74 91 1013.7
20260503030100 22 201 4.8 8.0 0.51 0.74 0.74 90 1014.3
20260503025541 22 193 3.2 8.0 0.51 0.74 0.74 90 1014.2
20260503025042 22 0 3.2 8.0 0.48 0.71 0.71 90 1014.1
20260503024601 22 182 0.0 4.8 0.48 0.71 0.71 90 1014.4
20260503024041 22 199 1.6 4.8 0.48 0.71 0.71 90 1014.7
20260503023542 22 193 0.0 4.8 0.46 0.69 0.69 90 1015.0
20260503023057 22 203 0.0 4.8 0.46 0.69 0.69 90 1014.6
20260503022542 22 0 0.0 4.8 0.46 0.66 0.66 90 1014.4
20260503022040 22 146 1.6 4.8 0.48 0.66 0.66 90 1014.9
20260503021610 22 0 0.0 3.2 0.38 0.56 0.56 90 1015.5
20260503021042 22 0 0.0 3.2 0.10 0.28 0.28 90 1015.4
20260503020542 22 0 0.0 3.2 0.05 0.23 0.23 90 1015.4
20260503020058 22 238 0.0 1.6 0.05 0.23 0.23 90 1014.9
20260503015542 22 0 0.0 3.2 0.05 0.23 0.23 90 1014.8
20260503015041 22 0 0.0 3.2 0.05 0.23 0.23 90 1014.8
20260503014553 23 0 0.0 1.6 0.08 0.23 0.23 90 1014.6
20260503014041 23 0 0.0 3.2 0.08 0.23 0.23 90 1014.4
20260503013543 23 0 0.0 3.2 0.08 0.23 0.23 90 1014.3
20260503013051 23 0 0.0 1.6 0.08 0.23 0.23 90 1014.3
20260503012542 23 0 0.0 0.0 0.05 0.20 0.20 90 1014.3
20260503012043 23 0 0.0 1.6 0.03 0.18 0.18 90 1014.3
20260503011604 23 0 0.0 1.6 0.03 0.18 0.18 90 1014.5
20260503011044 23 0 0.0 1.6 0.03 0.18 0.18 90 1014.6
20260503010543 23 0 0.0 3.2 0.03 0.18 0.18 90 1014.4
20260503005542 23 0 0.0 1.6 0.03 0.18 0.18 89 1014.4
20260503005042 23 0 0.0 3.2 0.03 0.18 0.18 90 1014.5
20260503004552 23 0 0.0 3.2 0.00 0.15 0.15 90 1014.5
20260503004108 23 192 0.0 3.2 0.00 0.15 0.15 90 1014.3
20260503003541 23 0 0.0 1.6 0.00 0.15 0.15 89 1014.2
20260503003055 23 0 0.0 1.6 0.00 0.15 0.15 89 1014.1
20260503002542 23 0 0.0 4.8 0.00 0.15 0.15 89 1014.3
20260503002041 23 0 0.0 4.8 0.00 0.15 0.15 89 1014.1
20260503001613 23 252 0.0 9.7 0.00 0.15 0.15 89 1014.1
20260503001041 23 252 1.6 9.7 0.00 0.15 0.15 89 1014.2
20260503000542 23 328 0.0 4.8 0.00 0.15 0.15 89 1014.3
20260503000113 23 0 0.0 4.8 0.08 0.15 0.15 89 1014.2
20260502235542 23 271 0.0 4.8 0.10 0.15 0.15 89 1014.2
20260502235042 23 262 1.6 6.4 0.15 0.15 0.15 89 1014.2
20260502234558 23 267 0.0 6.4 0.15 0.15 0.15 88 1014.3
20260502234042 23 0 3.2 6.4 0.15 0.15 0.15 88 1014.2
20260502233542 23 279 0.0 4.8 0.15 0.15 0.15 88 1014.1
20260502233050 23 228 1.6 6.4 0.15 0.15 0.15 88 1014.2
20260502232541 23 0 0.0 6.4 0.15 0.15 0.15 87 1014.1
20260502232040 23 0 0.0 8.0 0.15 0.15 0.15 87 1014.0
20260502231553 23 294 1.6 11.3 0.15 0.15 0.15 87 1014.1
20260502231039 23 360 0.0 12.9 0.15 0.15 0.15 86 1013.9
20260502230541 23 284 1.6 12.9 0.15 0.15 0.15 86 1014.1
20260502230049 24 341 1.6 12.9 0.08 0.08 0.08 85 1014.0
20260502225542 25 290 3.2 24.1 0.05 0.05 0.05 83 1013.9
20260502225042 26 234 6.4 25.7 0.00 0.00 0.00 80 1013.8
20260502224554 27 188 11.3 25.7 0.00 0.00 0.00 80 1013.6
20260502224042 28 242 3.2 14.5 0.00 0.00 0.00 84 1013.0
20260502223542 28 209 3.2 14.5 0.00 0.00 0.00 84 1012.8
20260502223049 28 221 4.8 16.1 0.00 0.00 0.00 84 1012.7
20260502222542 28 227 4.8 16.1 0.00 0.00 0.00 84 1012.6
20260502222045 28 224 4.8 16.1 0.00 0.00 0.00 84 1012.5
20260502221549 28 211 6.4 16.1 0.00 0.00 0.00 84 1012.7
20260502221040 28 182 1.6 16.1 0.00 0.00 0.00 84 1012.6
20260502220543 28 240 4.8 16.1 0.00 0.00 0.00 84 1012.6
20260502220133 28 225 3.2 20.9 0.00 0.00 0.00 84 1012.7
20260502215540 28 244 6.4 20.9 0.00 0.00 0.00 84 1012.6
20260502215039 28 233 3.2 12.9 0.00 0.00 0.00 84 1012.7
20260502214550 28 232 4.8 12.9 0.00 0.00 0.00 84 1012.8
20260502214038 28 178 3.2 12.9 0.00 0.00 0.00 84 1012.7
20260502213540 28 225 4.8 12.9 0.00 0.00 0.00 83 1012.7
20260502213048 28 250 4.8 12.9 0.00 0.00 0.00 83 1012.6
20260502212540 28 248 4.8 12.9 0.00 0.00 0.00 83 1012.4
20260502212042 28 202 3.2 14.5 0.00 0.00 0.00 83 1012.2
20260502211545 28 186 6.4 14.5 0.00 0.00 0.00 83 1012.3
20260502211042 28 173 4.8 17.7 0.00 0.00 0.00 83 1012.2
20260502210541 28 210 6.4 17.7 0.00 0.00 0.00 83 1012.1
20260502210100 28 261 4.8 16.1 0.00 0.00 0.00 82 1012.2
20260502205543 28 198 4.8 19.3 0.00 0.00 0.00 82 1012.2
20260502205042 29 211 6.4 19.3 0.00 0.00 0.00 82 1012.2
20260502204606 29 284 6.4 14.5 0.00 0.00 0.00 81 1012.3
20260502204042 29 209 6.4 16.1 0.00 0.00 0.00 81 1012.2
20260502203541 30 190 4.8 16.1 0.00 0.00 0.00 81 1012.1
20260502203101 30 180 4.8 17.7 0.00 0.00 0.00 80 1012.2
20260502202545 30 202 8.0 17.7 0.00 0.00 0.00 79 1012.0
20260502202040 30 224 3.2 14.5 0.00 0.00 0.00 79 1012.2
20260502201553 31 225 4.8 14.5 0.00 0.00 0.00 77 1012.2
20260502201042 31 270 4.8 16.1 0.00 0.00 0.00 78 1012.3
20260502200543 31 172 4.8 17.7 0.00 0.00 0.00 79 1012.1
20260502200053 30 182 8.0 17.7 0.00 0.00 0.00 77 1012.0
20260502195541 31 221 4.8 16.1 0.00 0.00 0.00 77 1011.9
20260502195041 31 192 6.4 14.5 0.00 0.00 0.00 75 1011.8
20260502194556 31 252 6.4 14.5 0.00 0.00 0.00 76 1012.0
20260502194042 31 197 4.8 19.3 0.00 0.00 0.00 77 1012.1
20260502193542 31 179 6.4 20.9 0.00 0.00 0.00 77 1012.1
20260502193050 31 206 8.0 20.9 0.00 0.00 0.00 77 1012.2
20260502192541 31 180 6.4 17.7 0.00 0.00 0.00 76 1012.2
20260502192042 31 277 3.2 17.7 0.00 0.00 0.00 78 1012.4
20260502191608 31 180 4.8 14.5 0.00 0.00 0.00 78 1012.5
20260502191045 31 234 6.4 14.5 0.00 0.00 0.00 78 1012.7
20260502190541 31 147 4.8 14.5 0.00 0.00 0.00 79 1012.5
20260502190106 30 0 6.4 16.1 0.00 0.00 0.00 78 1012.9
20260502185541 30 204 6.4 17.7 0.00 0.00 0.00 80 1012.8
20260502185041 30 167 6.4 19.3 0.00 0.00 0.00 78 1012.8
20260502184553 31 213 4.8 19.3 0.00 0.00 0.00 80 1013.0
20260502184040 31 203 6.4 12.9 0.00 0.00 0.00 80 1013.0
20260502183540 31 234 4.8 12.9 0.00 0.00 0.00 80 1013.1
20260502183058 31 193 4.8 16.1 0.00 0.00 0.00 79 1013.3
20260502182542 30 155 6.4 17.7 0.00 0.00 0.00 80 1013.2
20260502182040 30 197 6.4 17.7 0.00 0.00 0.00 81 1013.3
20260502181550 30 209 6.4 17.7 0.00 0.00 0.00 81 1013.2
20260502181043 30 197 6.4 16.1 0.00 0.00 0.00 80 1013.3
20260502180540 30 260 4.8 17.7 0.00 0.00 0.00 82 1013.4
20260502164041 30 186 6.4 19.3 0.00 0.00 0.00 83 1013.7
20260502163541 29 277 8.0 19.3 0.00 0.00 0.00 83 1013.8
20260502163108 30 221 4.8 16.1 0.00 0.00 0.00 83 1013.7
20260502162541 29 187 6.4 19.3 0.00 0.00 0.00 83 1013.5
20260502162040 29 265 6.4 19.3 0.00 0.00 0.00 83 1013.5
20260502161549 29 277 6.4 19.3 0.00 0.00 0.00 83 1013.6
20260502161038 29 251 8.0 19.3 0.00 0.00 0.00 83 1013.5
20260502160541 30 200 4.8 17.7 0.00 0.00 0.00 83 1013.4
20260502152040 29 180 6.4 25.7 0.00 0.00 0.00 83 1013.2
20260502151556 28 240 11.3 25.7 0.00 0.00 0.00 83 1013.2
20260502151042 28 159 6.4 24.1 0.00 0.00 0.00 83 1013.2
20260502150540 28 238 9.7 24.1 0.00 0.00 0.00 83 1013.3
20260502130541 26 203 6.4 17.7 0.00 0.00 0.00 86 1012.5
20260502123540 26 290 4.8 11.3 0.00 0.00 0.00 88 1012.4
20260502123058 25 197 1.6 8.0 0.00 0.00 0.00 88 1012.5
20260502122541 25 185 3.2 8.0 0.00 0.00 0.00 88 1012.4
20260502122041 25 146 1.6 6.4 0.00 0.00 0.00 89 1012.4
20260502121558 24 138 0.0 4.8 0.00 0.00 0.00 89 1012.4
20260502121043 23 197 1.6 8.0 0.00 0.00 0.00 89 1012.3
20260502120542 23 119 0.0 8.0 0.00 0.00 0.00 89 1012.4
20260502115541 23 157 3.2 9.7 0.00 0.00 0.00 90 1012.4
20260502115045 22 140 1.6 6.4 0.00 0.00 0.00 89 1012.3
20260502114549 22 146 1.6 11.3 0.00 0.00 0.00 89 1012.3
20260502114041 22 165 1.6 11.3 0.00 0.00 0.00 89 1012.2
20260502113545 22 134 4.8 11.3 0.00 0.00 0.00 89 1012.3
20260502113052 22 133 3.2 8.0 0.00 0.00 0.00 90 1012.3
20260502112540 22 123 3.2 8.0 0.00 0.00 0.00 90 1012.3
20260502112040 22 142 3.2 8.0 0.00 0.00 0.00 89 1012.4
20260502111551 22 0 1.6 6.4 0.00 0.00 0.00 90 1012.4
20260502111037 22 146 0.0 4.8 0.00 0.00 0.00 90 1012.4
20260502110541 22 0 1.6 6.4 0.00 0.00 0.00 90 1012.3
20260502110050 22 144 1.6 6.4 0.00 0.00 0.00 89 1012.3
20260502105541 22 140 0.0 3.2 0.00 0.00 0.00 89 1012.3
20260502105041 22 132 0.0 4.8 0.00 0.00 0.00 89 1012.2
20260502104546 22 0 1.6 4.8 0.00 0.00 0.00 89 1012.2
20260502104041 22 123 1.6 9.7 0.00 0.00 0.00 89 1012.2
20260502103541 22 173 1.6 9.7 0.00 0.00 0.00 89 1012.1
20260502103045 22 132 1.6 8.0 0.00 0.00 0.00 89 1012.1
20260502102541 22 0 0.0 6.4 0.00 0.00 0.00 89 1012.3
20260502102041 22 138 1.6 6.4 0.00 0.00 0.00 89 1012.2
20260502101550 22 146 1.6 6.4 0.00 0.00 0.00 89 1012.3
20260502101040 22 0 0.0 6.4 0.00 0.00 0.00 89 1012.2
20260502100540 22 0 1.6 6.4 0.00 0.00 0.00 89 1012.4
20260502091040 22 166 1.6 8.0 0.00 0.00 0.00 88 1012.5
20260502090540 22 144 3.2 6.4 0.00 0.00 0.00 88 1012.6
20260502071046 21 0 0.0 0.0 0.00 0.00 0.00 87 1012.6
20260502070543 21 0 0.0 0.0 0.00 0.00 0.00 87 1012.7
20260502070059 21 0 0.0 0.0 0.00 0.00 0.00 87 1012.6
20260502065544 21 0 0.0 0.0 0.00 0.00 0.00 87 1012.6
20260502065042 21 0 0.0 0.0 0.00 0.00 0.00 87 1012.5
20260502064554 21 0 0.0 0.0 0.00 0.00 0.00 87 1012.5
20260502064042 21 0 0.0 0.0 0.00 0.00 0.00 87 1012.5
20260502063545 21 0 0.0 0.0 0.00 0.00 0.00 87 1012.5
20260502063048 21 0 0.0 0.0 0.00 0.00 0.00 87 1012.7
20260502062541 21 0 0.0 0.0 0.00 0.00 0.00 87 1012.5
20260502062044 21 0 0.0 0.0 0.00 0.00 0.00 87 1012.5
20260502061551 21 0 0.0 0.0 0.00 0.00 0.00 87 1012.5
20260502061041 21 0 0.0 0.0 0.00 0.00 0.00 87 1012.5
20260502060543 21 0 0.0 0.0 0.00 0.00 0.00 87 1012.7
20260502060101 21 0 0.0 0.0 0.00 0.00 0.00 87 1012.8
20260502055541 21 0 0.0 0.0 0.00 0.00 0.00 87 1012.8
20260502055041 21 0 0.0 0.0 0.00 0.00 0.00 87 1012.7
20260502054556 21 0 0.0 0.0 0.00 0.00 0.00 87 1012.8
20260502054040 21 0 0.0 0.0 0.00 0.00 0.00 87 1012.8
20260502053541 21 0 0.0 0.0 0.00 0.00 0.00 87 1012.9
20260502053052 21 0 0.0 0.0 0.00 0.00 0.00 87 1013.0
20260502052545 21 0 0.0 0.0 0.00 0.00 0.00 87 1012.9
20260502052045 21 0 0.0 1.6 0.00 0.00 0.00 87 1013.1
20260502051553 21 0 0.0 1.6 0.00 0.00 0.00 87 1013.1
20260502051042 21 0 0.0 0.0 0.00 0.00 0.00 87 1013.2
20260502050542 21 0 0.0 0.0 0.00 0.00 0.00 86 1013.2
20260502050051 21 0 0.0 0.0 0.00 0.00 0.00 86 1013.1
20260502045546 21 0 0.0 0.0 0.00 0.00 0.00 86 1013.1
20260502045044 21 0 0.0 0.0 0.00 0.00 0.00 86 1013.1
20260502044555 21 0 0.0 0.0 0.00 0.00 0.00 86 1013.1
20260502044042 21 0 0.0 0.0 0.00 0.00 0.00 86 1013.0
20260502043541 21 0 0.0 0.0 0.00 0.00 0.00 86 1013.1
20260502043059 21 0 0.0 0.0 0.00 0.00 0.00 86 1013.1
20260502042541 21 0 0.0 0.0 0.00 0.00 0.00 85 1013.1
20260502042041 22 0 0.0 0.0 0.00 0.00 0.00 85 1013.1
20260502041552 22 0 0.0 0.0 0.00 0.00 0.00 85 1013.1
20260502041041 22 0 0.0 0.0 0.00 0.00 0.00 85 1013.0
20260502040543 22 0 0.0 0.0 0.00 0.00 0.00 85 1013.1
20260502040054 22 0 0.0 0.0 0.00 0.00 0.00 85 1013.2
20260502035544 22 0 0.0 0.0 0.00 0.00 0.00 85 1013.1
20260502035043 22 0 0.0 0.0 0.00 0.00 0.00 84 1013.2